FW2297 Weather Reports


time (UTC)temp
C
wind
direction
speed
KPH
gust
KPH
rain 1hr
cm
rain 24hr
cm
rain mn
cm
humidity
%
barometer
mb
20260507000552 11 0 0.0 6.4 0.03 1.04 1.04 92 1004.6
20260507000055 11 0 0.0 0.0 0.03 1.04 1.04 92 1004.4
20260506235550 11 0 0.0 0.0 0.05 1.04 1.04 92 1004.4
20260506235052 11 0 0.0 0.0 0.03 1.02 1.02 91 1004.3
20260506234555 11 0 0.0 0.0 0.03 1.02 1.02 91 1004.3
20260506234051 12 0 0.0 1.6 0.03 1.02 1.02 91 1004.0
20260506233552 12 0 0.0 1.6 0.03 1.02 1.02 92 1004.2
20260506233054 12 0 0.0 1.6 0.03 1.02 1.02 91 1003.9
20260506232554 12 0 0.0 6.4 0.03 1.02 1.02 91 1003.8
20260506232048 12 0 0.0 9.7 0.03 1.02 1.02 92 1003.8
20260506231556 13 0 0.0 9.7 0.03 1.02 1.02 92 1003.9
20260506231048 13 304 0.0 12.9 0.03 1.02 1.02 92 1003.8
20260506230552 13 0 0.0 12.9 0.05 1.02 1.02 92 1003.8
20260506230056 14 0 0.0 12.9 0.03 0.99 0.99 93 1003.7
20260506225551 15 0 0.0 8.0 0.03 1.02 0.99 94 1003.6
20260506225051 15 0 0.0 0.0 0.05 1.02 0.99 95 1003.5
20260506224606 15 0 0.0 0.0 0.08 1.02 0.99 95 1003.3
20260506224047 15 0 0.0 0.0 0.08 1.02 0.99 94 1003.3
20260506223550 15 0 0.0 0.0 0.10 1.02 0.99 94 1003.4
20260506223052 15 0 0.0 0.0 0.13 1.02 0.99 94 1003.4
20260506222550 15 0 0.0 0.0 0.15 1.02 0.99 94 1003.3
20260506222051 15 0 0.0 0.0 0.18 1.02 0.99 94 1003.4
20260506221554 15 0 0.0 0.0 0.18 1.02 0.99 94 1003.3
20260506221048 15 0 0.0 1.6 0.20 1.02 0.99 94 1003.4
20260506220548 15 0 0.0 8.0 0.18 0.99 0.97 94 1003.4
20260506220054 15 0 0.0 8.0 0.18 0.99 0.97 94 1003.3
20260506215548 15 0 0.0 3.2 0.20 1.07 0.97 94 1003.5
20260506215048 15 0 0.0 3.2 0.20 1.04 0.94 94 1003.4
20260506214609 15 0 0.0 1.6 0.18 1.02 0.91 94 1003.4
20260506214051 15 0 0.0 1.6 0.23 1.02 0.91 94 1003.5
20260506213548 15 0 0.0 3.2 0.23 0.99 0.89 94 1003.5
20260506213053 15 0 0.0 3.2 0.23 0.97 0.86 94 1003.6
20260506212548 15 0 0.0 3.2 0.23 0.94 0.84 94 1003.7
20260506212054 15 0 0.0 3.2 0.23 0.91 0.81 94 1003.7
20260506211554 15 0 0.0 3.2 0.23 0.91 0.81 94 1003.7
20260506211052 15 27 0.0 1.6 0.23 0.89 0.79 94 1003.6
20260506210551 15 0 0.0 1.6 0.23 0.89 0.79 94 1003.7
20260506210055 15 0 0.0 0.0 0.23 0.89 0.79 94 1003.8
20260506205551 15 0 0.0 0.0 0.20 0.86 0.76 94 1003.7
20260506205048 15 0 0.0 0.0 0.20 0.84 0.74 94 1003.9
20260506204604 15 0 0.0 0.0 0.20 0.84 0.74 93 1003.9
20260506204048 15 0 0.0 0.0 0.18 0.79 0.69 93 1004.0
20260506203548 15 0 0.0 1.6 0.15 0.76 0.66 93 1004.0
20260506203055 15 0 0.0 1.6 0.15 0.74 0.64 93 1004.2
20260506202548 15 0 0.0 4.8 0.13 0.71 0.61 93 1004.0
20260506202051 15 0 0.0 8.0 0.13 0.69 0.58 93 1004.0
20260506201555 15 0 0.0 8.0 0.13 0.69 0.58 93 1004.2
20260506201052 15 0 0.0 8.0 0.13 0.66 0.56 93 1004.3
20260506200550 15 0 0.0 3.2 0.13 0.66 0.56 93 1004.3
20260506200055 15 0 0.0 0.0 0.15 0.66 0.56 93 1004.3
20260506195551 15 0 0.0 0.0 0.15 0.66 0.56 94 1004.2
20260506195054 15 0 0.0 0.0 0.13 0.64 0.53 94 1004.4
20260506194606 15 0 0.0 0.0 0.15 0.64 0.53 94 1004.4
20260506194050 15 0 0.0 0.0 0.13 0.61 0.51 94 1004.5
20260506193551 15 0 0.0 9.7 0.15 0.61 0.51 94 1004.6
20260506193057 15 0 0.0 9.7 0.13 0.58 0.48 93 1004.7
20260506192551 15 0 0.0 0.0 0.15 0.58 0.48 93 1004.7
20260506192048 15 0 0.0 0.0 0.13 0.56 0.46 93 1004.6
20260506191552 15 0 0.0 0.0 0.10 0.53 0.43 93 1004.8
20260506191047 15 0 0.0 1.6 0.13 0.53 0.43 93 1004.8
20260506190550 15 0 0.0 1.6 0.13 0.53 0.43 93 1004.9
20260506190053 15 0 0.0 1.6 0.13 0.51 0.41 93 1004.7
20260506185547 15 0 0.0 4.8 0.15 0.51 0.41 93 1004.7
20260506185050 15 0 0.0 4.8 0.18 0.51 0.41 93 1004.8
20260506184557 15 0 0.0 4.8 0.15 0.48 0.38 94 1004.9
20260506184051 15 0 0.0 1.6 0.18 0.48 0.38 94 1005.0
20260506183552 15 0 0.0 8.0 0.18 0.46 0.36 93 1005.3
20260506183100 15 0 0.0 8.0 0.20 0.46 0.36 93 1005.1
20260506182551 15 96 0.0 3.2 0.20 0.43 0.33 93 1005.1
20260506182051 15 0 0.0 3.2 0.20 0.43 0.33 93 1005.2
20260506181552 15 0 0.0 6.4 0.23 0.43 0.33 93 1005.5
20260506181048 15 0 0.0 6.4 0.20 0.41 0.30 93 1005.4
20260506180548 15 0 0.0 6.4 0.23 0.41 0.30 92 1005.7
20260506180052 15 0 0.0 1.6 0.23 0.38 0.28 92 1005.6
20260506175548 15 0 0.0 1.6 0.20 0.36 0.25 92 1005.7
20260506175054 15 0 0.0 0.0 0.20 0.33 0.23 91 1005.8
20260506174552 15 0 0.0 0.0 0.20 0.33 0.23 91 1005.8
20260506174052 16 0 0.0 0.0 0.18 0.30 0.20 90 1005.8
20260506173551 16 0 0.0 0.0 0.18 0.28 0.18 90 1005.8
20260506173054 16 0 0.0 0.0 0.15 0.25 0.15 89 1005.9
20260506172550 16 0 0.0 0.0 0.13 0.23 0.13 88 1006.0
20260506172051 16 0 0.0 0.0 0.13 0.23 0.13 88 1006.1
20260506171557 16 0 0.0 0.0 0.10 0.20 0.10 87 1006.0
20260506171051 16 0 0.0 0.0 0.10 0.20 0.10 87 1006.2
20260506170552 16 0 0.0 0.0 0.08 0.18 0.08 86 1006.2
20260506170059 16 0 0.0 0.0 0.05 0.15 0.05 86 1006.2
20260506165548 16 0 0.0 0.0 0.05 0.15 0.05 86 1006.1
20260506165241 16 0 0.0 0.0 0.03 0.13 0.03 86 1006.2
20260506164558 16 0 0.0 0.0 0.03 0.13 0.03 85 1006.3
20260506164053 16 0 0.0 0.0 0.03 0.13 0.03 84 1006.1
20260506163553 16 0 0.0 0.0 0.00 0.10 0.00 83 1006.3
20260506163105 16 0 0.0 0.0 0.00 0.10 0.00 82 1006.3
20260506162551 16 0 0.0 0.0 0.00 0.10 0.00 82 1006.3
20260506162051 16 0 0.0 0.0 0.00 0.10 0.00 82 1006.2
20260506161606 16 0 0.0 0.0 0.00 0.10 0.00 83 1006.6
20260506161055 16 0 0.0 0.0 0.00 0.10 0.00 84 1006.4
20260506160551 16 0 0.0 0.0 0.00 0.10 0.00 84 1006.6
20260506160058 16 0 0.0 0.0 0.00 0.10 0.00 83 1006.9
20260506155647 -17 0.0 0.0 0.00 0.10 0.00 1007.2
20260506154052 16 0 0.0 0.0 0.00 0.10 0.00 81 1007.5
20260506153552 16 0 0.0 0.0 0.00 0.10 0.00 80 1007.7
20260506153055 16 0 0.0 0.0 0.00 0.10 0.00 80 1007.7
20260506152552 16 0 0.0 0.0 0.00 0.10 0.00 79 1007.6
20260506152052 16 0 0.0 0.0 0.00 0.10 0.00 79 1007.6
20260506151554 16 0 0.0 0.0 0.00 0.10 0.00 79 1007.4
20260506151051 16 0 0.0 0.0 0.00 0.10 0.00 79 1007.5
20260506150551 16 0 0.0 0.0 0.00 0.10 0.00 80 1007.3
20260506150054 16 0 0.0 0.0 0.00 0.10 0.00 80 1007.4
20260506145554 16 0 0.0 0.0 0.00 0.10 0.00 80 1007.2
20260506145053 16 0 0.0 0.0 0.00 0.10 0.00 80 1007.5
20260506144601 16 0 0.0 1.6 0.00 0.10 0.00 80 1007.6
20260506144052 16 0 0.0 1.6 0.00 0.10 0.00 80 1007.7
20260506143551 16 0 0.0 4.8 0.00 0.10 0.00 80 1007.5
20260506143053 16 0 0.0 4.8 0.00 0.10 0.00 79 1007.5
20260506142552 16 0 0.0 4.8 0.00 0.10 0.00 79 1007.5
20260506142051 16 0 0.0 4.8 0.00 0.10 0.00 80 1007.5
20260506141603 16 0 0.0 0.0 0.00 0.10 0.00 80 1007.6
20260506141054 16 0 0.0 0.0 0.00 0.10 0.00 80 1007.6
20260506140552 16 0 0.0 0.0 0.00 0.10 0.00 79 1007.6
20260506140109 16 0 0.0 0.0 0.00 0.10 0.00 80 1007.6
20260506135552 16 0 0.0 0.0 0.00 0.10 0.00 80 1007.3
20260506135051 15 0 0.0 3.2 0.00 0.10 0.00 80 1007.5
20260506134558 15 0 0.0 3.2 0.00 0.10 0.00 80 1007.7
20260506134053 16 0 0.0 3.2 0.00 0.10 0.00 80 1007.7
20260506133551 16 0 0.0 0.0 0.00 0.10 0.00 81 1007.7
20260506133102 15 0 0.0 0.0 0.00 0.10 0.00 81 1007.9
20260506132551 15 0 0.0 0.0 0.00 0.10 0.00 81 1007.9
20260506132051 15 0 0.0 0.0 0.00 0.10 0.00 81 1008.0
20260506131554 15 0 0.0 0.0 0.00 0.10 0.00 82 1007.8
20260506131054 15 0 0.0 1.6 0.00 0.10 0.00 81 1008.0
20260506130551 15 0 0.0 1.6 0.00 0.10 0.00 81 1008.0
20260506130054 15 0 0.0 1.6 0.00 0.10 0.00 82 1007.8
20260506125552 15 0 0.0 0.0 0.00 0.10 0.00 82 1007.7
20260506125051 15 0 0.0 0.0 0.00 0.10 0.00 82 1007.8
20260506124555 15 0 0.0 0.0 0.00 0.10 0.00 82 1007.9
20260506124051 15 0 0.0 0.0 0.00 0.10 0.00 83 1007.9
20260506123554 15 0 0.0 0.0 0.00 0.10 0.00 83 1007.6
20260506123054 15 0 0.0 0.0 0.00 0.10 0.00 83 1007.7
20260506122551 15 0 0.0 0.0 0.00 0.10 0.00 83 1007.8
20260506122052 15 0 0.0 0.0 0.00 0.10 0.00 84 1007.9
20260506121553 15 0 0.0 0.0 0.00 0.10 0.00 85 1007.9
20260506121051 14 0 0.0 1.6 0.00 0.10 0.00 85 1008.1
20260506120552 14 0 0.0 1.6 0.00 0.10 0.00 86 1008.1
20260506120057 14 0 0.0 1.6 0.00 0.10 0.00 87 1008.1
20260506115548 14 0 0.0 0.0 0.00 0.10 0.00 88 1007.9
20260506115048 13 0 0.0 0.0 0.00 0.10 0.00 90 1008.1
20260506114600 13 0 0.0 1.6 0.00 0.10 0.00 91 1008.0
20260506114048 13 0 0.0 1.6 0.00 0.10 0.00 93 1008.1
20260506113552 13 0 0.0 1.6 0.00 0.10 0.00 94 1008.0
20260506113101 13 0 0.0 0.0 0.00 0.10 0.00 95 1007.9
20260506112553 12 0 0.0 0.0 0.00 0.10 0.00 94 1008.1
20260506112052 12 0 0.0 0.0 0.00 0.10 0.00 94 1008.1
20260506111555 12 0 0.0 0.0 0.00 0.10 0.00 95 1008.0
20260506111051 12 0 0.0 0.0 0.00 0.10 0.00 95 1008.1
20260506110553 12 0 0.0 0.0 0.00 0.10 0.00 95 1008.0
20260506110054 12 0 0.0 0.0 0.00 0.10 0.00 94 1007.9
20260506105549 12 0 0.0 0.0 0.00 0.10 0.00 94 1008.0
20260506105051 12 0 0.0 0.0 0.00 0.10 0.00 94 1008.0
20260506104558 12 0 0.0 0.0 0.00 0.10 0.00 94 1008.0
20260506104052 12 0 0.0 0.0 0.00 0.10 0.00 94 1008.0
20260506103549 12 0 0.0 0.0 0.00 0.10 0.00 94 1008.3
20260506103059 12 0 0.0 0.0 0.00 0.10 0.00 94 1008.2
20260506102552 12 0 0.0 0.0 0.00 0.10 0.00 94 1007.9
20260506102048 12 0 0.0 0.0 0.00 0.10 0.00 94 1008.0
20260506101552 12 0 0.0 0.0 0.00 0.10 0.00 94 1008.0
20260506101052 12 0 0.0 0.0 0.00 0.10 0.00 93 1007.9
20260506100551 12 0 0.0 0.0 0.00 0.10 0.00 93 1007.9
20260506100056 12 0 0.0 0.0 0.00 0.10 0.00 93 1007.8
20260506095552 12 0 0.0 0.0 0.00 0.10 0.00 93 1007.8
20260506095052 12 0 0.0 0.0 0.00 0.10 0.00 93 1007.8
20260506094553 12 0 0.0 0.0 0.00 0.10 0.00 93 1007.9
20260506094051 12 0 0.0 0.0 0.00 0.10 0.00 93 1007.9
20260506093555 12 0 0.0 0.0 0.00 0.10 0.00 93 1008.0
20260506093053 12 0 0.0 0.0 0.00 0.10 0.00 93 1007.8
20260506092552 12 0 0.0 0.0 0.00 0.10 0.00 93 1007.9
20260506092049 12 0 0.0 0.0 0.00 0.10 0.00 93 1008.0
20260506091557 12 0 0.0 0.0 0.00 0.10 0.00 93 1008.0
20260506091050 12 0 0.0 0.0 0.00 0.10 0.00 93 1007.9
20260506090552 13 0 0.0 0.0 0.00 0.10 0.00 93 1007.7
20260506090051 13 0 0.0 0.0 0.00 0.10 0.00 93 1007.9
20260506085551 13 0 0.0 0.0 0.00 0.10 0.00 93 1008.0
20260506085052 13 0 0.0 0.0 0.00 0.10 0.00 93 1008.0
20260506084555 13 0 0.0 0.0 0.00 0.10 0.00 93 1008.0
20260506084051 13 0 0.0 0.0 0.00 0.10 0.00 93 1008.1
20260506083550 13 0 0.0 0.0 0.00 0.10 0.00 93 1008.2
20260506083055 13 0 0.0 0.0 0.00 0.10 0.00 93 1008.0
20260506082551 13 0 0.0 0.0 0.00 0.10 0.00 93 1008.0
20260506082050 13 0 0.0 0.0 0.00 0.10 0.00 93 1007.9
20260506081558 13 0 0.0 0.0 0.00 0.10 0.00 93 1007.9
20260506081052 13 0 0.0 0.0 0.00 0.10 0.00 93 1008.1
20260506080552 13 0 0.0 0.0 0.00 0.10 0.00 93 1008.1
20260506073056 13 0 0.0 0.0 0.00 0.10 0.00 94 1008.2
20260506072551 12 0 0.0 0.0 0.00 0.10 0.00 94 1008.2
20260506072051 12 0 0.0 0.0 0.00 0.10 0.00 94 1008.1
20260506071559 12 0 0.0 0.0 0.00 0.10 0.00 94 1007.9
20260506071051 12 0 0.0 0.0 0.00 0.10 0.00 94 1008.0
20260506070551 12 0 0.0 0.0 0.00 0.10 0.00 94 1007.9
20260506062052 13 0 0.0 0.0 0.00 0.10 0.00 93 1007.9
20260506061557 13 0 0.0 0.0 0.00 0.10 0.00 93 1007.9
20260506061053 13 0 0.0 0.0 0.00 0.10 0.00 93 1007.7
20260506060551 13 0 0.0 0.0 0.00 0.10 0.00 93 1007.7
20260506051052 13 0 0.0 0.0 0.00 0.10 0.00 92 1007.8
20260506050552 13 0 0.0 0.0 0.00 0.10 0.00 92 1007.9
20260506045054 13 0 0.0 0.0 0.00 0.10 0.00 91 1007.8
20260506044639 13 0 0.0 0.0 0.00 0.10 0.00 91 1007.9
20260506044053 13 0 0.0 0.0 0.00 0.10 0.00 91 1007.8
20260506043551 13 0 0.0 0.0 0.00 0.10 0.00 91 1007.8
20260506043053 13 0 0.0 0.0 0.00 0.10 0.00 91 1007.7
20260506042551 13 0 0.0 0.0 0.00 0.10 0.00 91 1007.7
20260506042051 14 0 0.0 0.0 0.00 0.10 0.00 91 1007.7
20260506041554 14 0 0.0 0.0 0.00 0.10 0.00 90 1007.7
20260506041052 14 0 0.0 0.0 0.00 0.10 0.00 90 1007.7
20260506040551 14 0 0.0 0.0 0.00 0.10 0.00 89 1007.6
20260506040057 14 0 0.0 0.0 0.00 0.10 0.00 89 1007.8
20260506035624 14 0 0.0 0.0 0.00 0.10 0.10 89 1007.5
20260506035051 14 0 0.0 0.0 0.00 0.10 0.10 89 1007.6
20260506034556 14 0 0.0 0.0 0.00 0.10 0.10 89 1007.6
20260506034049 14 0 0.0 0.0 0.00 0.10 0.10 89 1007.8
20260506033548 14 0 0.0 0.0 0.00 0.10 0.10 89 1007.7
20260506033057 14 0 0.0 0.0 0.00 0.10 0.10 89 1007.8
20260506032552 14 0 0.0 0.0 0.00 0.10 0.10 89 1007.9
20260506032052 14 0 0.0 0.0 0.00 0.10 0.10 89 1007.8
20260506031556 14 0 0.0 0.0 0.00 0.10 0.10 89 1007.7
20260506031052 14 0 0.0 0.0 0.00 0.10 0.10 89 1007.8
20260506030552 14 0 0.0 0.0 0.00 0.10 0.10 88 1007.9
20260506030059 14 0 0.0 0.0 0.00 0.10 0.10 88 1007.9
20260506025551 14 0 0.0 0.0 0.00 0.10 0.10 88 1007.8
20260506025051 14 0 0.0 0.0 0.00 0.10 0.10 88 1007.8
20260506024600 14 0 0.0 0.0 0.00 0.10 0.10 88 1007.6
20260506024048 14 0 0.0 0.0 0.00 0.10 0.10 87 1007.7
20260506023553 15 0 0.0 0.0 0.00 0.10 0.10 86 1007.7
20260506023100 15 0 0.0 0.0 0.00 0.10 0.10 86 1007.6
20260506022548 15 0 0.0 0.0 0.00 0.10 0.10 86 1007.5
20260506022052 15 0 0.0 0.0 0.00 0.10 0.10 86 1007.6
20260506021607 15 0 0.0 0.0 0.00 0.10 0.10 86 1007.6
20260506021052 15 0 0.0 0.0 0.00 0.10 0.10 86 1007.6
20260506020547 15 0 0.0 1.6 0.00 0.10 0.10 86 1007.6
20260506020059 15 0 0.0 1.6 0.00 0.10 0.10 86 1007.4
20260506015553 15 0 0.0 0.0 0.00 0.10 0.10 85 1007.4
20260506015053 15 0 0.0 0.0 0.00 0.10 0.10 85 1007.5
20260506014557 15 0 0.0 0.0 0.00 0.10 0.10 84 1007.5
20260506014051 15 0 0.0 0.0 0.00 0.10 0.10 84 1007.6
20260506013548 15 0 0.0 0.0 0.00 0.10 0.10 83 1007.6
20260506013059 15 0 0.0 0.0 0.00 0.10 0.10 84 1007.6
20260506012548 15 0 0.0 0.0 0.00 0.10 0.10 85 1007.7
20260506012048 15 0 0.0 0.0 0.00 0.10 0.10 85 1007.7
20260506011553 15 0 0.0 0.0 0.00 0.10 0.10 85 1007.5
20260506011049 15 0 0.0 0.0 0.00 0.10 0.10 84 1007.5
20260506010549 15 0 0.0 0.0 0.00 0.10 0.10 85 1007.4
20260506010115 15 0 0.0 0.0 0.00 0.10 0.10 85 1007.2
20260506005548 15 0 0.0 0.0 0.00 0.10 0.10 83 1007.2
20260506005051 15 0 0.0 0.0 0.00 0.10 0.10 83 1007.2
20260506004557 15 0 0.0 0.0 0.00 0.10 0.10 83 1007.1
20260506004123 15 0 0.0 0.0 0.00 0.10 0.10 83 1007.2
20260506003550 16 0 0.0 0.0 0.00 0.10 0.10 83 1007.2
20260506003057 16 0 0.0 0.0 0.00 0.10 0.10 81 1007.1
20260506002551 16 0 0.0 0.0 0.00 0.10 0.10 80 1007.1
20260506002048 16 0 0.0 0.0 0.00 0.10 0.10 78 1006.9
20260506001559 16 0 0.0 0.0 0.00 0.10 0.10 78 1006.9
20260506001049 16 0 0.0 0.0 0.00 0.10 0.10 77 1006.8